Content
SEND FEEDBACK

Daily
Averages
Monthly
Summary
Turkmenistan

ASHGABAT, TURKMENISTAN


Home > Asia > Turkmenistan
Elevation: 775 feet     Latitude: 37 58N     Longitude: 058 20E

WEATHER
 
SELECT A DAY
Number of Records: 177,354;   Date Range: 3/15/97 - 8/12/14
 
SHARE

PRINT THIS DATA

[ ← Previous Day ]
WEATHER ALMANAC - JUNE 17, 2014
[ Next Day → ]
[ °C ]   °F
Weather ElementAverageHighLow
Temperature83.7 °F98.6 °F (2:00 pm)71.6 °F (5:00 am)
Dewpoint36.7 °F48 °F (2:00 am)25 °F (5:00 pm)
Humidity18.8 %31 % (5:30 am)4 % (5:00 pm)
Barometer29.89 in29.92 in (7:00 am)29.83 in (8:00 pm)
Wind Speed4 mph8.9 mph (9:00 am)
Weather ElementAverage
Visibility5.9 mi
Wind DirectionS (178.6 °)

Weather ElementTotal
Precipitation---
Cooling Degree Days20.1 (Base 65)
Growing Degree Days35.1 (Base 50)
Averaged from 26 records on June 17, 2014
WEATHER CONDITIONS BREAKOUT
WIND DIRECTION BREAKOUT
WEATHER BY HOUR - JUNE 17, 2014
[ °C ]   °F
Local TimeTemperatureDewpointHumidityBarometerVisibilityWind DirectionWind SpeedGust SpeedPrecipitationEventsConditions
1:00 AM77.0 °F39.2 °F26 %29.86 in5.0 miNNE (30°)4.5 mphClear
2:00 AM76.0 °F48.0 °F26 %29.86 in6.0 miWSW (250°)2.2 mph
2:00 AM75.2 °F41.0 °F29 %29.86 in3.1 miVariable2.2 mphHaze
3:00 AM75.2 °F41.0 °F29 %29.86 in6.2 miSouth (190°)4.5 mphClear
4:00 AM73.4 °F39.2 °F29 %29.86 in6.2 miVariable2.2 mphClear
5:00 AM71.6 °F37.4 °F29 %29.86 in6.2 miWest (260°)4.5 mphClear
5:00 AM73.0 °F44.0 °F24 %29.88 in6.0 miWest (260°)4.5 mph
5:30 AM71.6 °F39.2 °F31 %29.89 in6.2 miWest (260°)6.7 mphClear
6:00 AM71.6 °F37.4 °F29 %29.89 in5.6 miSW (230°)4.5 mphClear
6:30 AM73.4 °F39.2 °F29 %29.89 in6.2 miSW (230°)4.5 mphClear
7:00 AM75.2 °F41.0 °F29 %29.92 in6.2 miSSW (200°)4.5 mphClear
7:30 AM78.8 °F42.8 °F28 %29.92 in6.2 miVariable2.2 mphClear
8:00 AM84.2 °F32.0 °F15 %29.92 in6.2 miCalmClear
8:00 AM79.0 °F46.0 °F21 %29.92 in6.0 miCalm
9:00 AM87.8 °F37.4 °F17 %29.92 in6.2 miNNW (330°)8.9 mphClear
10:00 AM89.6 °F35.6 °F15 %29.92 in6.2 miNNW (340°)6.7 mphClear
11:00 AM91.0 °F38.0 °F8 %29.91 in6.0 miNorth (350°)6.7 mph
11:00 AM93.2 °F32.0 °F11 %29.92 in6.2 miNNE (20°)6.7 mphClear
12:00 PM95.0 °F30.2 °F10 %29.92 in6.2 miNE (40°)6.7 mphClear
1:00 PM96.8 °F30.2 °F10 %29.92 in6.2 miNNE (30°)4.5 mphClear
1:30 PM96.8 °F30.2 °F10 %29.89 in6.2 miNorth (350°)4.5 mphClear
2:00 PM97.0 °F32.0 °F5 %29.88 in6.0 miWest (270°)4.5 mph
2:00 PM98.6 °F30.2 °F9 %29.89 in6.2 miWNW (290°)6.7 mphClear
5:00 PM97.0 °F25.0 °F4 %29.85 in6.0 miCalmScattered Clouds
8:00 PM95.0 °F28.0 °F4 %29.83 in6.0 miCalmScattered Clouds
11:00 PM82.0 °F37.0 °F11 %29.86 inCalm
Hourly data recorded from UTAA, located miles away from Ashgabat, Turkmenistan







STORIES FROM OUR PARTNERS